Location: *
(37.5724°S, 58.0067°E)
Time: 11:20:55
(UTC+00:00)

Cosmos 1733 - Pass Details

Date: 26 September 2020
Orbit: 504 x 522 km, 82.5° (Epoch: 29 October)

Event Time Altitude Azimuth Distance (km) Brightness Sun altitude
Rises 15:06:12 0° 194° (SSW) 2,689 7.2 -12.2°
Reaches altitude 10° 15:08:25 10° 200° (SSW) 1,792 6.4 -12.7°
Maximum altitude 15:12:12 45° 273° (W) 728 4.4 -13.4°
Drops below altitude 10° 15:15:55 10° 346° (NNW) 1,767 5.9 -14.1°
Sets 15:18:05 0° 352° (N) 2,645 6.7 -14.5°
